Content
SEND FEEDBACK

Daily
Averages
Monthly
Summary
United States of America

SHEFFIELD, PENNSYLVANIA


Home > North America > United States > Pennsylvania
Elevation: 1518 feet     Latitude: 41 40N     Longitude: 079 02W

WEATHER
 
SELECT A DAY
Number of Records: 252,613;   Date Range: 1/1/95 - 4/19/14
 
SHARE

PRINT THIS DATA

[ ← Previous Day ]
WEATHER ALMANAC - JANUARY 31, 2013
[ Next Day → ]
[ °C ]   °F
Weather ElementAverageHighLow
Temperature24.5 °F46.9 °F (12:40 am)17.1 °F (7:53 pm)
Dewpoint16.6 °F42.1 °F (12:40 am)7 °F (11:39 pm)
Humidity72.1 %85 % (3:53 am)53 % (12:43 pm)
Barometer29.45 in29.75 in (11:53 pm)29.11 in (1:34 am)
Wind Speed15 mph27.6 mph (12:29 pm)
Wind Gust38 mph (1:53 am)
Weather ElementAverage
Visibility2.4 mi
Wind DirectionWSW (259.4 °)

Weather ElementTotal
Precipitation0.45 in
Heating Degree Days33 (Base 65)
Averaged from 103 records on January 31, 2013
WEATHER CONDITIONS BREAKOUT
WIND DIRECTION BREAKOUT
WEATHER BY HOUR - JANUARY 31, 2013
[ °C ]   °F
Local TimeTemperatureDewpointHumidityBarometerVisibilityWind DirectionWind SpeedGust SpeedPrecipitationEventsConditions
12:40 AM46.9 °F42.1 °F83 %29.13 in5.0 miWSW (240°)10.4 mph25.3 mph0.07 inRainRain
12:51 AM46.4 °F41.0 °F81 %29.13 in6.0 miSW (230°)9.2 mph27.6 mph0.09 inRainRain
12:53 AM46.9 °F41.0 °F80 %29.12 in6.0 miSW (230°)13.8 mph27.6 mph0.10 inRainRain
1:01 AM46.0 °F39.0 °F76 %29.13 in8.0 miSW (220°)11.5 mph25.3 mph0.01 inRainLight Rain
1:34 AM45.0 °F39.0 °F80 %29.11 in10.0 miSW (220°)9.2 mph0.01 inOvercast
1:53 AM39.0 °F34.0 °F82 %29.15 in4.0 miWest (280°)25.3 mph38.0 mph0.03 inRainRain
2:09 AM37.0 °F32.0 °F82 %29.14 in7.0 miWest (280°)21.9 mph34.5 mph0.01 inRainLight Rain
2:45 AM36.0 °F30.0 °F79 %29.18 in6.0 miWest (260°)15.0 mph27.6 mph0.01 inSnowLight Snow
2:53 AM35.1 °F30.0 °F82 %29.18 in4.0 miWest (270°)16.1 mph26.5 mph0.01 inSnowLight Snow
3:29 AM34.0 °F27.0 °F75 %29.18 in2.5 miWest (260°)19.6 mph28.8 mph0.01 inSnowLight Snow
3:35 AM33.1 °F28.0 °F82 %29.18 in1.2 miWest (270°)12.7 mph27.6 mph0.01 inSnowLight Snow
3:38 AM33.1 °F28.0 °F82 %29.18 in1.0 miWest (270°)12.7 mph26.5 mph0.01 inSnowLight Snow
3:53 AM32.0 °F28.0 °F85 %29.21 in1.5 miWest (280°)15.0 mph24.2 mph0.01 inSnowLight Snow
3:56 AM32.0 °F28.0 °F85 %29.19 in0.8 miWest (270°)11.5 mph21.9 mph0.00 inSnowLight Snow
4:05 AM32.0 °F27.0 °F82 %29.19 in1.0 miWest (270°)13.8 mph25.3 mph0.00 inSnowLight Snow
4:23 AM32.0 °F27.0 °F82 %29.20 in3.0 miWSW (250°)12.7 mph25.3 mph0.01 inSnowLight Snow
4:30 AM32.0 °F27.0 °F82 %29.20 in2.5 miWest (270°)13.8 mph23.0 mph0.01 inSnowLight Snow
4:33 AM32.0 °F27.0 °F82 %29.21 in1.2 miWest (260°)11.5 mph23.0 mph0.01 inSnowLight Snow
4:44 AM30.9 °F25.0 °F79 %29.22 in3.0 miWest (270°)20.7 mph32.2 mph0.01 inSnowLight Snow
4:53 AM30.9 °F24.1 °F76 %29.24 in10.0 miWest (280°)19.6 mph34.5 mph0.01 inOvercast
5:53 AM28.9 °F19.9 °F69 %29.28 in6.0 miWest (270°)20.7 mph29.9 mph0.00 inSnowLight Snow
6:53 AM27.0 °F19.0 °F72 %29.33 in2.0 miWest (280°)9.2 mph26.5 mph0.00 inSnowLight Snow
7:04 AM26.1 °F19.9 °F78 %29.32 in1.2 miWest (280°)20.7 mph28.8 mph0.00 inSnowLight Snow
7:09 AM26.1 °F19.9 °F78 %29.32 in0.8 miWest (270°)17.3 mph28.8 mph0.00 inSnowLight Snow
7:18 AM26.1 °F19.9 °F78 %29.32 in1.0 miWest (270°)15.0 mph31.1 mph0.00 inSnowLight Snow
7:35 AM26.1 °F21.0 °F81 %29.34 in1.0 miWest (270°)18.4 mph26.5 mph0.00 inSnowLight Snow
7:40 AM26.1 °F21.0 °F81 %29.34 in0.2 miWest (270°)11.5 mph26.5 mph0.00 inSnowHeavy Snow
7:53 AM25.0 °F19.9 °F81 %29.38 in0.2 miWest (270°)23.0 mph34.5 mph0.01 inSnowHeavy Snow
8:03 AM25.0 °F19.9 °F81 %29.35 in0.5 miWest (270°)18.4 mph31.1 mph0.00 inSnowSnow
8:10 AM26.1 °F19.9 °F78 %29.36 in2.0 miWest (270°)13.8 mph31.1 mph0.00 inSnowLight Snow
8:18 AM26.1 °F19.0 °F75 %29.36 in5.0 miWest (270°)10.4 mph21.9 mph0.00 inOvercast
8:39 AM26.1 °F18.0 °F71 %29.37 in1.8 miWest (280°)15.0 mph27.6 mph0.00 inSnowLight Snow
8:53 AM26.1 °F18.0 °F71 %29.42 in1.2 miWest (270°)15.0 mph31.1 mph0.00 inSnowLight Snow
9:10 AM26.1 °F15.1 °F63 %29.39 in3.0 miWest (260°)15.0 mph29.9 mph0.00 inMostly Cloudy
9:25 AM26.1 °F15.1 °F63 %29.41 in2.0 miWest (260°)19.6 mph32.2 mph0.00 inSnowLight Snow
9:28 AM25.0 °F16.0 °F69 %29.41 in0.8 miWest (270°)18.4 mph32.2 mph0.00 inSnowLight Snow
9:41 AM24.1 °F17.1 °F75 %29.42 in2.0 miWest (270°)17.3 mph32.2 mph0.00 inSnowLight Snow
9:53 AM25.0 °F14.0 °F63 %29.44 in2.0 miWest (270°)21.9 mph32.2 mph0.00 inOvercast
10:02 AM25.0 °F15.1 °F66 %29.42 in4.0 miWest (260°)12.7 mph33.4 mph0.00 inOvercast
10:07 AM24.1 °F16.0 °F71 %29.42 in1.8 miWSW (250°)16.1 mph29.9 mph0.00 inSnowLight Snow
10:21 AM23.0 °F16.0 °F74 %29.43 in0.5 miWest (270°)20.7 mph33.4 mph0.00 inSnowSnow
10:29 AM24.1 °F15.1 °F69 %29.43 in2.0 miWest (270°)16.1 mph31.1 mph0.00 inSnowLight Snow
10:40 AM24.1 °F15.1 °F69 %29.42 in1.2 miWest (280°)21.9 mph34.5 mph0.00 inSnowLight Snow
10:53 AM24.1 °F14.0 °F65 %29.45 in2.5 miWest (270°)24.2 mph33.4 mph0.00 inMostly Cloudy
10:57 AM24.1 °F12.9 °F62 %29.43 in1.8 miWest (280°)20.7 mph36.8 mph0.00 inSnowLight Snow
11:02 AM24.1 °F15.1 °F69 %29.43 in0.8 miWest (280°)21.9 mph36.8 mph0.00 inSnowLight Snow
11:15 AM23.0 °F16.0 °F74 %29.44 in1.0 miWest (280°)11.5 mph26.5 mph0.00 inSnowLight Snow
11:19 AM23.0 °F17.1 °F78 %29.44 in0.2 miWest (280°)16.1 mph25.3 mph0.00 inSnowHeavy Snow
11:29 AM21.9 °F17.1 °F82 %29.45 in0.2 miWest (270°)24.2 mph33.4 mph0.00 inSnowHeavy Snow
11:34 AM21.9 °F16.0 °F78 %29.45 in0.5 miWest (280°)18.4 mph33.4 mph0.00 inSnowSnow
11:40 AM23.0 °F15.1 °F72 %29.45 in1.2 miWest (280°)20.7 mph33.4 mph0.00 inSnowLight Snow
11:44 AM23.0 °F14.0 °F68 %29.45 in1.8 miWest (270°)13.8 mph33.4 mph0.00 inSnowLight Snow
11:51 AM23.0 °F12.2 °F63 %29.46 in1.2 miWest (280°)19.6 mph32.2 mph0.00 inSnowLight Snow
11:53 AM23.0 °F12.9 °F65 %29.49 in1.2 miWest (280°)17.3 mph32.2 mph0.00 inSnowLight Snow
11:59 AM21.9 °F15.1 °F75 %29.47 in0.2 miWest (270°)20.7 mph35.7 mph0.00 inSnowHeavy Snow
12:13 PM23.0 °F10.9 °F60 %29.47 in1.0 miWest (270°)20.7 mph32.2 mph0.00 inSnowLight Snow
12:26 PM23.0 °F10.0 °F58 %29.48 in3.0 miWest (260°)19.6 mph29.9 mph0.00 inSnowLight Snow
12:29 PM21.9 °F10.0 °F60 %29.47 in1.5 miWest (280°)27.6 mph38.0 mph0.00 inOvercast
12:35 PM21.9 °F9.0 °F58 %29.47 in0.8 miWest (260°)19.6 mph38.0 mph0.00 inSnowLight Snow
12:43 PM23.0 °F8.1 °F53 %29.47 in1.8 miWest (270°)23.0 mph31.1 mph0.00 inOvercast
12:53 PM21.9 °F9.0 °F58 %29.52 in1.0 miWest (270°)17.3 mph32.2 mph0.00 inSnowLight Snow
1:01 PM21.0 °F10.9 °F65 %29.48 in0.8 miWest (280°)17.3 mph29.9 mph0.00 inSnowLight Snow
1:11 PM21.9 °F10.9 °F63 %29.49 in1.8 miWest (260°)13.8 mph24.2 mph0.00 inSnowLight Snow
1:18 PM21.9 °F10.9 °F63 %29.49 in3.0 miWest (270°)13.8 mph21.9 mph0.00 inSnowLight Snow
1:31 PM21.0 °F10.9 °F65 %29.49 in1.8 miWest (270°)12.7 mph25.3 mph0.00 inSnowLight Snow
1:42 PM19.9 °F12.0 °F71 %29.49 in0.5 miWSW (250°)10.4 mph29.9 mph0.00 inSnowSnow
1:53 PM21.0 °F12.0 °F68 %29.55 in1.8 miWest (260°)15.0 mph31.1 mph0.00 inSnowLight Snow
2:12 PM21.0 °F10.9 °F65 %29.50 in2.0 miWSW (250°)13.8 mph29.9 mph0.00 inSnowLight Snow
2:21 PM21.9 °F10.9 °F63 %29.51 in5.0 miWest (260°)12.7 mph29.9 mph0.00 inSnowLight Snow
2:53 PM21.0 °F9.0 °F60 %29.57 in3.0 miWest (270°)19.6 mph34.5 mph0.00 inOvercast
2:57 PM21.0 °F10.0 °F63 %29.52 in1.8 miWest (270°)17.3 mph34.5 mph0.00 inSnowLight Snow
3:07 PM21.0 °F9.0 °F60 %29.52 in3.0 miWSW (240°)18.4 mph27.6 mph0.00 inSnowLight Snow
3:41 PM19.9 °F10.0 °F65 %29.54 in1.8 miWest (270°)16.1 mph27.6 mph0.00 inSnowLight Snow
3:53 PM19.0 °F12.9 °F77 %29.62 in0.5 miWest (270°)12.7 mph26.5 mph0.00 inSnowSnow
4:07 PM19.9 °F10.9 °F68 %29.56 in1.5 miWest (280°)13.8 mph24.2 mph0.00 inSnowLight Snow
4:17 PM19.9 °F9.0 °F62 %29.56 in3.0 miWest (270°)16.1 mph25.3 mph0.00 inSnowLight Snow
4:31 PM19.9 °F10.0 °F65 %29.57 in1.8 miWest (260°)11.5 mph24.2 mph0.00 inSnowLight Snow
4:39 PM19.0 °F10.9 °F71 %29.58 in0.8 miWSW (250°)12.7 mph18.4 mph0.00 inSnowLight Snow
4:53 PM18.0 °F10.9 °F74 %29.66 in0.8 miWest (260°)15.0 mph25.3 mph0.00 inSnowLight Snow
5:06 PM19.0 °F10.9 °F71 %29.59 in2.0 miWest (260°)15.0 mph20.7 mph0.00 inSnowLight Snow
5:12 PM19.0 °F10.0 °F68 %29.59 in4.0 miWest (270°)6.9 mph20.7 mph0.00 inSnowLight Snow
5:28 PM19.0 °F10.0 °F68 %29.61 in2.0 miWest (260°)11.5 mph20.7 mph0.00 inSnowLight Snow
5:35 PM18.0 °F10.9 °F74 %29.60 in1.0 miWSW (250°)12.7 mph21.9 mph0.00 inSnowLight Snow
5:43 PM18.0 °F9.0 °F68 %29.61 in3.0 miWest (260°)11.5 mph24.2 mph0.00 inSnowLight Snow
5:53 PM18.0 °F9.0 °F68 %29.68 in5.0 miWest (260°)9.2 mph27.6 mph0.00 inSnowLight Snow
6:04 PM18.0 °F10.0 °F71 %29.62 in2.5 miWSW (250°)10.4 mph19.6 mph0.00 inSnowLight Snow
6:09 PM18.0 °F10.9 °F74 %29.62 in0.8 miWest (260°)10.4 mph19.6 mph0.00 inSnowLight Snow
6:22 PM18.0 °F10.9 °F74 %29.63 in2.0 miWSW (240°)10.4 mph19.6 mph0.00 inSnowLight Snow
6:38 PM18.0 °F10.0 °F71 %29.63 in4.0 miWest (260°)9.2 mph24.2 mph0.00 inSnowLight Snow
6:53 PM18.0 °F9.0 °F68 %29.70 in5.0 miWSW (250°)10.4 mph23.0 mph0.00 inSnowLight Snow
7:32 PM18.0 °F9.0 °F68 %29.63 in2.5 miWSW (250°)9.2 mph27.6 mph0.00 inSnowLight Snow
7:49 PM17.6 °F10.4 °F73 %29.64 in1.8 miWest (260°)8.1 mph0.00 inSnowLight Snow
7:53 PM17.1 °F10.9 °F77 %29.72 in1.8 miWest (260°)6.9 mph17.3 mph0.00 inSnowLight Snow
8:22 PM17.1 °F12.0 °F81 %29.64 in0.8 miWSW (250°)4.6 mph0.00 inSnowLight Snow
8:53 PM17.1 °F12.9 °F84 %29.71 in1.0 miVariable4.6 mph0.01 inSnowLight Snow
9:37 PM18.0 °F12.9 °F81 %29.64 in1.5 miVariable6.9 mph0.00 inSnowLight Snow
9:53 PM18.0 °F12.0 °F78 %29.72 in1.2 miWSW (240°)12.7 mph18.4 mph0.00 inSnowLight Snow
10:42 PM18.0 °F12.0 °F78 %29.65 in0.8 miWest (270°)8.1 mph17.3 mph0.00 inSnowLight Snow
10:53 PM18.0 °F12.0 °F78 %29.74 in1.0 miWest (260°)10.4 mph21.9 mph0.00 inSnowLight Snow
11:04 PM18.0 °F10.0 °F71 %29.66 in2.0 miWest (260°)9.2 mph27.6 mph0.00 inSnowLight Snow
11:17 PM17.1 °F9.0 °F71 %29.66 in3.0 miWest (260°)13.8 mph28.8 mph0.00 inSnowLight Snow
11:39 PM17.1 °F7.0 °F65 %29.66 in6.0 miWest (270°)17.3 mph26.5 mph0.00 inOvercast
11:53 PM17.1 °F7.0 °F65 %29.75 in6.0 miWest (270°)16.1 mph25.3 mph0.00 inOvercast
Hourly data recorded from KBFD, located 22.35 miles away from Sheffield, Pennsylvania







STORIES FROM OUR PARTNERS